contact:dominique.lefevre@mio.osupytheas.fr, maurice.libes@osupytheas.fr, didier.mallarino@osupytheas.fr
Project:EMSO http://www.emso-fr.org/EMSO-France
Depth: 2436.0 m
Title:EMSO Ligure Ouest : Data MII capteur CSTAR
DateTime,Latitude,Longitude,Instrument_Serial,Reference_Counts,Signal_Counts,Corrected_Signal_raw_counts,Calculated_Beam_c_inverse_meters,Internal_thermistor_counts
DateTime,Latitude,Longitude,Instrument_Serial,Reference_Counts,Signal_Counts,Corrected_Signal_raw_counts,Calculated_Beam_c_inverse_meters,Internal_thermistor_counts
2020-12-13T00:02:32,42.805,6.029,CST-1368DR,5706,7986,15059,0.145,551
2020-12-13T00:05:34,42.805,6.029,CST-1368DR,5706,7986,15059,0.145,551
2020-12-13T00:08:36,42.805,6.029,CST-1368DR,5706,7986,15059,0.145,551
2020-12-13T00:11:37,42.805,6.029,CST-1368DR,5706,7985,15057,0.146,551
2020-12-13T00:14:39,42.805,6.029,CST-1368DR,5706,7986,15058,0.146,551
2020-12-13T00:17:40,42.805,6.029,CST-1368DR,5706,7986,15058,0.146,551
2020-12-13T00:20:42,42.805,6.029,CST-1368DR,5706,7986,15059,0.145,551
2020-12-13T00:23:43,42.805,6.029,CST-1368DR,5706,7986,15058,0.146,551
2020-12-13T00:26:45,42.805,6.029,CST-1368DR,5706,7987,15060,0.145,551
2020-12-13T00:29:47,42.805,6.029,CST-1368DR,5706,7986,15058,0.146,551
2020-12-13T00:32:48,42.805,6.029,CST-1368DR,5706,7983,15053,0.147,551
2020-12-13T00:35:50,42.805,6.029,CST-1368DR,5706,7986,15058,0.146,551
2020-12-13T00:38:51,42.805,6.029,CST-1368DR,5706,7986,15058,0.146,551
2020-12-13T00:41:53,42.805,6.029,CST-1368DR,5706,7986,15058,0.146,551
2020-12-13T00:44:54,42.805,6.029,CST-1368DR,5706,7987,15060,0.145,551
2020-12-13T00:47:56,42.805,6.029,CST-1368DR,5706,7986,15059,0.145,551
2020-12-13T00:50:58,42.805,6.029,CST-1368DR,5706,7986,15058,0.146,551
2020-12-13T00:53:59,42.805,6.029,CST-1368DR,5706,7986,15058,0.146,551
2020-12-13T00:57:01,42.805,6.029,CST-1368DR,5706,7986,15058,0.146,551
2020-12-13T01:00:02,42.805,6.029,CST-1368DR,5706,7986,15058,0.146,551
2020-12-13T01:03:04,42.805,6.029,CST-1368DR,5706,7986,15058,0.146,550
2020-12-13T01:06:06,42.805,6.029,CST-1368DR,5706,7986,15059,0.145,551
2020-12-13T01:09:07,42.805,6.029,CST-1368DR,5706,7986,15058,0.146,551
2020-12-13T01:12:09,42.805,6.029,CST-1368DR,5706,7985,15057,0.146,551
2020-12-13T01:15:10,42.805,6.029,CST-1368DR,5706,7986,15059,0.145,551
2020-12-13T01:18:12,42.805,6.029,CST-1368DR,5706,7986,15059,0.145,551
2020-12-13T01:21:13,42.805,6.029,CST-1368DR,5706,7985,15057,0.146,551
2020-12-13T01:24:15,42.805,6.029,CST-1368DR,5706,7985,15057,0.146,551
2020-12-13T01:27:17,42.805,6.029,CST-1368DR,5706,7986,15058,0.146,551
2020-12-13T01:30:18,42.805,6.029,CST-1368DR,5706,7985,15057,0.146,551
2020-12-13T01:33:20,42.805,6.029,CST-1368DR,5706,7986,15058,0.146,551
2020-12-13T01:36:21,42.805,6.029,CST-1368DR,5706,7986,15058,0.146,551
2020-12-13T01:39:23,42.805,6.029,CST-1368DR,5706,7986,15058,0.146,551
2020-12-13T01:42:25,42.805,6.029,CST-1368DR,5706,7986,15059,0.145,551
2020-12-13T01:45:26,42.805,6.029,CST-1368DR,5706,7986,15059,0.145,551
2020-12-13T01:48:28,42.805,6.029,CST-1368DR,5706,7985,15056,0.146,551
2020-12-13T01:51:29,42.805,6.029,CST-1368DR,5706,7986,15058,0.146,551
2020-12-13T01:54:31,42.805,6.029,CST-1368DR,5706,7986,15058,0.146,551
2020-12-13T01:57:32,42.805,6.029,CST-1368DR,5706,7986,15058,0.146,551
2020-12-13T02:00:34,42.805,6.029,CST-1368DR,5706,7985,15057,0.146,551
2020-12-13T02:03:36,42.805,6.029,CST-1368DR,5706,7985,15057,0.146,551
2020-12-13T02:06:37,42.805,6.029,CST-1368DR,5706,7985,15056,0.146,551
2020-12-13T02:09:39,42.805,6.029,CST-1368DR,5706,7985,15057,0.146,551
2020-12-13T02:12:40,42.805,6.029,CST-1368DR,5706,7985,15056,0.146,551
2020-12-13T02:15:42,42.805,6.029,CST-1368DR,5706,7985,15057,0.146,551
2020-12-13T02:18:43,42.805,6.029,CST-1368DR,5706,7985,15057,0.146,551
2020-12-13T02:21:45,42.805,6.029,CST-1368DR,5706,7983,15053,0.147,551
2020-12-13T02:24:47,42.805,6.029,CST-1368DR,5706,7986,15058,0.146,551
2020-12-13T02:27:48,42.805,6.029,CST-1368DR,5706,7985,15057,0.146,551
2020-12-13T02:30:50,42.805,6.029,CST-1368DR,5706,7986,15058,0.146,551
2020-12-13T02:33:51,42.805,6.029,CST-1368DR,5706,7986,15059,0.145,551
2020-12-13T02:36:53,42.805,6.029,CST-1368DR,5706,7985,15057,0.146,551
2020-12-13T02:39:55,42.805,6.029,CST-1368DR,5706,7986,15058,0.146,551
2020-12-13T02:42:56,42.805,6.029,CST-1368DR,5706,7985,15057,0.146,551
2020-12-13T02:45:58,42.805,6.029,CST-1368DR,5706,7985,15057,0.146,551
2020-12-13T02:48:59,42.805,6.029,CST-1368DR,5706,7986,15059,0.145,551
2020-12-13T02:52:01,42.805,6.029,CST-1368DR,5706,7985,15057,0.146,551
2020-12-13T02:55:02,42.805,6.029,CST-1368DR,5706,7985,15057,0.146,551
2020-12-13T02:58:04,42.805,6.029,CST-1368DR,5706,7986,15058,0.146,551
2020-12-13T03:01:06,42.805,6.029,CST-1368DR,5706,7986,15058,0.146,551
2020-12-13T03:04:07,42.805,6.029,CST-1368DR,5706,7985,15056,0.146,551
2020-12-13T03:07:09,42.805,6.029,CST-1368DR,5706,7986,15058,0.146,551
2020-12-13T03:10:10,42.805,6.029,CST-1368DR,5706,7986,15058,0.146,551
2020-12-13T03:13:12,42.805,6.029,CST-1368DR,5706,7986,15058,0.146,551
2020-12-13T03:16:14,42.805,6.029,CST-1368DR,5706,7985,15057,0.146,551
2020-12-13T03:19:15,42.805,6.029,CST-1368DR,5706,7985,15056,0.146,551
2020-12-13T03:22:17,42.805,6.029,CST-1368DR,5706,7985,15057,0.146,550
2020-12-13T03:25:18,42.805,6.029,CST-1368DR,5706,7985,15057,0.146,551
2020-12-13T03:28:20,42.805,6.029,CST-1368DR,5706,7985,15057,0.146,551
2020-12-13T03:31:21,42.805,6.029,CST-1368DR,5706,7985,15057,0.146,551
2020-12-13T03:34:23,42.805,6.029,CST-1368DR,5706,7985,15057,0.146,551
2020-12-13T03:37:25,42.805,6.029,CST-1368DR,5706,7986,15058,0.146,551
2020-12-13T03:40:26,42.805,6.029,CST-1368DR,5706,7985,15057,0.146,551
2020-12-13T03:43:28,42.805,6.029,CST-1368DR,5706,7986,15058,0.146,551
2020-12-13T03:46:29,42.805,6.029,CST-1368DR,5706,7984,15055,0.146,551
2020-12-13T03:49:31,42.805,6.029,CST-1368DR,5706,7984,15054,0.147,551
2020-12-13T03:52:32,42.805,6.029,CST-1368DR,5706,7985,15056,0.146,551
2020-12-13T03:55:34,42.805,6.029,CST-1368DR,5706,7984,15055,0.146,551
2020-12-13T03:58:36,42.805,6.029,CST-1368DR,5706,7986,15058,0.146,551
2020-12-13T04:01:37,42.805,6.029,CST-1368DR,5706,7984,15055,0.146,551
2020-12-13T04:04:39,42.805,6.029,CST-1368DR,5706,7985,15057,0.146,551
2020-12-13T04:07:40,42.805,6.029,CST-1368DR,5706,7985,15057,0.146,551
2020-12-13T04:10:42,42.805,6.029,CST-1368DR,5706,7985,15057,0.146,551
2020-12-13T04:13:44,42.805,6.029,CST-1368DR,5706,7985,15057,0.146,551
2020-12-13T04:16:45,42.805,6.029,CST-1368DR,5706,7984,15055,0.146,551
2020-12-13T04:19:47,42.805,6.029,CST-1368DR,5706,7984,15055,0.146,551
2020-12-13T04:22:48,42.805,6.029,CST-1368DR,5706,7985,15057,0.146,551
2020-12-13T04:25:50,42.805,6.029,CST-1368DR,5706,7985,15057,0.146,551
2020-12-13T04:28:51,42.805,6.029,CST-1368DR,5706,7985,15056,0.146,551
2020-12-13T04:31:53,42.805,6.029,CST-1368DR,5706,7985,15057,0.146,551
2020-12-13T04:34:55,42.805,6.029,CST-1368DR,5706,7984,15055,0.146,551
2020-12-13T04:37:56,42.805,6.029,CST-1368DR,5706,7984,15055,0.146,551
2020-12-13T04:40:58,42.805,6.029,CST-1368DR,5706,7982,15052,0.147,551
2020-12-13T04:43:59,42.805,6.029,CST-1368DR,5706,7985,15057,0.146,551
2020-12-13T04:47:01,42.805,6.029,CST-1368DR,5706,7984,15055,0.146,551
2020-12-13T04:50:02,42.805,6.029,CST-1368DR,5706,7983,15053,0.147,551
2020-12-13T04:53:04,42.805,6.029,CST-1368DR,5706,7985,15056,0.146,551
2020-12-13T04:56:06,42.805,6.029,CST-1368DR,5706,7984,15055,0.146,551
2020-12-13T04:59:07,42.805,6.029,CST-1368DR,5706,7984,15055,0.146,551
2020-12-13T05:02:09,42.805,6.029,CST-1368DR,5706,7985,15057,0.146,551
2020-12-13T05:05:10,42.805,6.029,CST-1368DR,5706,7984,15055,0.146,551
2020-12-13T05:08:12,42.805,6.029,CST-1368DR,5706,7985,15057,0.146,551
2020-12-13T05:11:14,42.805,6.029,CST-1368DR,5706,7985,15056,0.146,551
2020-12-13T05:14:15,42.805,6.029,CST-1368DR,5706,7985,15057,0.146,551
2020-12-13T05:17:17,42.805,6.029,CST-1368DR,5706,7985,15057,0.146,551
2020-12-13T05:20:18,42.805,6.029,CST-1368DR,5706,7985,15057,0.146,551
2020-12-13T05:23:20,42.805,6.029,CST-1368DR,5706,7985,15057,0.146,551
2020-12-13T05:26:21,42.805,6.029,CST-1368DR,5706,7985,15056,0.146,551
2020-12-13T05:29:23,42.805,6.029,CST-1368DR,5706,7985,15057,0.146,551
2020-12-13T05:32:25,42.805,6.029,CST-1368DR,5706,7985,15057,0.146,551
2020-12-13T05:35:26,42.805,6.029,CST-1368DR,5706,7985,15056,0.146,551
2020-12-13T05:38:28,42.805,6.029,CST-1368DR,5706,7985,15057,0.146,551
2020-12-13T05:41:29,42.805,6.029,CST-1368DR,5706,7985,15057,0.146,551
2020-12-13T05:44:31,42.805,6.029,CST-1368DR,5706,7985,15057,0.146,551
2020-12-13T05:47:33,42.805,6.029,CST-1368DR,5706,7985,15057,0.146,551
2020-12-13T05:50:34,42.805,6.029,CST-1368DR,5706,7985,15057,0.146,551
2020-12-13T05:53:36,42.805,6.029,CST-1368DR,5706,7985,15056,0.146,551
2020-12-13T05:56:37,42.805,6.029,CST-1368DR,5706,7985,15056,0.146,551
2020-12-13T05:59:39,42.805,6.029,CST-1368DR,5706,7985,15056,0.146,551
2020-12-13T06:02:40,42.805,6.029,CST-1368DR,5706,7985,15056,0.146,551
2020-12-13T06:05:42,42.805,6.029,CST-1368DR,5706,7985,15056,0.146,551
2020-12-13T06:08:44,42.805,6.029,CST-1368DR,5706,7985,15057,0.146,551
2020-12-13T06:11:45,42.805,6.029,CST-1368DR,5706,7985,15057,0.146,551
2020-12-13T06:14:47,42.805,6.029,CST-1368DR,5706,7985,15056,0.146,551
2020-12-13T06:17:48,42.805,6.029,CST-1368DR,5706,7985,15056,0.146,551
2020-12-13T06:20:50,42.805,6.029,CST-1368DR,5706,7984,15055,0.146,551
2020-12-13T06:23:52,42.805,6.029,CST-1368DR,5706,7984,15055,0.146,551
2020-12-13T06:26:53,42.805,6.029,CST-1368DR,5706,7985,15056,0.146,551
2020-12-13T06:29:55,42.805,6.029,CST-1368DR,5706,7984,15055,0.146,551
2020-12-13T06:32:56,42.805,6.029,CST-1368DR,5706,7985,15056,0.146,551
2020-12-13T06:35:58,42.805,6.029,CST-1368DR,5706,7985,15057,0.146,551
2020-12-13T06:38:59,42.805,6.029,CST-1368DR,5706,7984,15054,0.147,551
2020-12-13T06:42:01,42.805,6.029,CST-1368DR,5706,7985,15057,0.146,551
2020-12-13T06:45:03,42.805,6.029,CST-1368DR,5706,7985,15056,0.146,551
2020-12-13T06:48:04,42.805,6.029,CST-1368DR,5706,7985,15056,0.146,551
2020-12-13T06:51:06,42.805,6.029,CST-1368DR,5706,7984,15055,0.146,551
2020-12-13T06:54:07,42.805,6.029,CST-1368DR,5706,7985,15057,0.146,551
2020-12-13T06:57:09,42.805,6.029,CST-1368DR,5706,7983,15053,0.147,551
2020-12-13T07:00:10,42.805,6.029,CST-1368DR,5706,7985,15056,0.146,551
2020-12-13T07:03:12,42.805,6.029,CST-1368DR,5706,7985,15057,0.146,551
2020-12-13T07:06:14,42.805,6.029,CST-1368DR,5706,7984,15055,0.146,551
2020-12-13T07:09:15,42.805,6.029,CST-1368DR,5705,7985,15059,0.145,551
2020-12-13T07:12:17,42.805,6.029,CST-1368DR,5706,7985,15057,0.146,551
2020-12-13T07:15:18,42.805,6.029,CST-1368DR,5706,7985,15056,0.146,551
2020-12-13T07:18:20,42.805,6.029,CST-1368DR,5706,7985,15057,0.146,551
2020-12-13T07:21:22,42.805,6.029,CST-1368DR,5705,7985,15059,0.145,551
2020-12-13T07:24:23,42.805,6.029,CST-1368DR,5706,7984,15055,0.146,551
2020-12-13T07:27:25,42.805,6.029,CST-1368DR,5706,7984,15055,0.146,551
2020-12-13T07:30:26,42.805,6.029,CST-1368DR,5706,7984,15055,0.146,551
2020-12-13T07:33:28,42.805,6.029,CST-1368DR,5706,7984,15055,0.146,551
2020-12-13T07:36:29,42.805,6.029,CST-1368DR,5706,7984,15055,0.146,551
2020-12-13T07:39:31,42.805,6.029,CST-1368DR,5706,7984,15055,0.146,551
2020-12-13T07:42:33,42.805,6.029,CST-1368DR,5705,7984,15058,0.146,551
2020-12-13T07:45:34,42.805,6.029,CST-1368DR,5705,7983,15055,0.146,551
2020-12-13T07:48:36,42.805,6.029,CST-1368DR,5705,7984,15056,0.146,551
2020-12-13T07:51:37,42.805,6.029,CST-1368DR,5705,7984,15057,0.146,551
2020-12-13T07:54:39,42.805,6.029,CST-1368DR,5705,7984,15058,0.146,551
2020-12-13T07:57:40,42.805,6.029,CST-1368DR,5705,7984,15058,0.146,551
2020-12-13T08:00:42,42.805,6.029,CST-1368DR,5705,7984,15057,0.146,551
2020-12-13T08:03:44,42.805,6.029,CST-1368DR,5705,7984,15058,0.146,551
2020-12-13T08:06:45,42.805,6.029,CST-1368DR,5705,7985,15059,0.145,551
2020-12-13T08:09:47,42.805,6.029,CST-1368DR,5705,7984,15056,0.146,551
2020-12-13T08:12:48,42.805,6.029,CST-1368DR,5705,7984,15057,0.146,551
2020-12-13T08:15:50,42.805,6.029,CST-1368DR,5706,7984,15055,0.146,551
2020-12-13T08:18:52,42.805,6.029,CST-1368DR,5705,7984,15057,0.146,551
2020-12-13T08:21:53,42.805,6.029,CST-1368DR,5705,7984,15057,0.146,551
2020-12-13T08:24:55,42.805,6.029,CST-1368DR,5705,7984,15058,0.146,551
2020-12-13T08:27:56,42.805,6.029,CST-1368DR,5705,7984,15056,0.146,551
2020-12-13T08:30:58,42.805,6.029,CST-1368DR,5705,7984,15057,0.146,551
2020-12-13T08:33:59,42.805,6.029,CST-1368DR,5705,7984,15058,0.146,551
2020-12-13T08:37:01,42.805,6.029,CST-1368DR,5705,7984,15056,0.146,551
2020-12-13T08:40:03,42.805,6.029,CST-1368DR,5705,7984,15056,0.146,551
2020-12-13T08:43:04,42.805,6.029,CST-1368DR,5705,7984,15057,0.146,551
2020-12-13T08:46:06,42.805,6.029,CST-1368DR,5705,7984,15057,0.146,551
2020-12-13T08:49:07,42.805,6.029,CST-1368DR,5705,7984,15056,0.146,551
2020-12-13T08:52:09,42.805,6.029,CST-1368DR,5705,7983,15056,0.146,551
2020-12-13T08:55:11,42.805,6.029,CST-1368DR,5705,7984,15057,0.146,551
2020-12-13T08:58:12,42.805,6.029,CST-1368DR,5705,7984,15057,0.146,551
2020-12-13T09:01:14,42.805,6.029,CST-1368DR,5705,7983,15055,0.146,551
2020-12-13T09:04:15,42.805,6.029,CST-1368DR,5705,7984,15056,0.146,551
2020-12-13T09:07:17,42.805,6.029,CST-1368DR,5705,7984,15057,0.146,551
2020-12-13T09:10:18,42.805,6.029,CST-1368DR,5705,7984,15056,0.146,551
2020-12-13T09:13:20,42.805,6.029,CST-1368DR,5705,7983,15055,0.146,551
2020-12-13T09:16:22,42.805,6.029,CST-1368DR,5705,7984,15057,0.146,551
2020-12-13T09:19:23,42.805,6.029,CST-1368DR,5705,7984,15057,0.146,551
2020-12-13T09:22:25,42.805,6.029,CST-1368DR,5705,7984,15057,0.146,551
2020-12-13T09:25:26,42.805,6.029,CST-1368DR,5705,7983,15055,0.146,551
2020-12-13T09:28:28,42.805,6.029,CST-1368DR,5705,7984,15056,0.146,551
2020-12-13T09:31:29,42.805,6.029,CST-1368DR,5705,7983,15056,0.146,551
2020-12-13T09:34:31,42.805,6.029,CST-1368DR,5705,7984,15057,0.146,551
2020-12-13T09:37:33,42.805,6.029,CST-1368DR,5705,7984,15057,0.146,551
2020-12-13T09:40:34,42.805,6.029,CST-1368DR,5705,7984,15057,0.146,551
2020-12-13T09:43:36,42.805,6.029,CST-1368DR,5705,7984,15057,0.146,551
2020-12-13T09:46:37,42.805,6.029,CST-1368DR,5705,7984,15056,0.146,551
2020-12-13T09:49:39,42.805,6.029,CST-1368DR,5705,7983,15055,0.146,550
2020-12-13T09:52:41,42.805,6.029,CST-1368DR,5705,7983,15055,0.146,551
2020-12-13T09:55:42,42.805,6.029,CST-1368DR,5705,7983,15056,0.146,551
2020-12-13T09:58:44,42.805,6.029,CST-1368DR,5705,7982,15054,0.147,551
2020-12-13T10:01:45,42.805,6.029,CST-1368DR,5705,7984,15056,0.146,551
2020-12-13T10:04:47,42.805,6.029,CST-1368DR,5705,7983,15055,0.146,551
2020-12-13T10:07:48,42.805,6.029,CST-1368DR,5705,7984,15057,0.146,551
2020-12-13T10:10:50,42.805,6.029,CST-1368DR,5705,7984,15057,0.146,551
2020-12-13T10:13:52,42.805,6.029,CST-1368DR,5705,7984,15057,0.146,551
2020-12-13T10:16:53,42.805,6.029,CST-1368DR,5705,7984,15056,0.146,551
2020-12-13T10:19:55,42.805,6.029,CST-1368DR,5705,7983,15056,0.146,551
2020-12-13T10:22:56,42.805,6.029,CST-1368DR,5705,7984,15057,0.146,551
2020-12-13T10:25:58,42.805,6.029,CST-1368DR,5705,7984,15057,0.146,551
2020-12-13T10:29:00,42.805,6.029,CST-1368DR,5705,7984,15057,0.146,551
2020-12-13T10:32:01,42.805,6.029,CST-1368DR,5705,7983,15056,0.146,550
2020-12-13T10:35:03,42.805,6.029,CST-1368DR,5705,7984,15057,0.146,551
2020-12-13T10:38:04,42.805,6.029,CST-1368DR,5705,7984,15057,0.146,551
2020-12-13T10:41:06,42.805,6.029,CST-1368DR,5705,7984,15057,0.146,551
2020-12-13T10:44:07,42.805,6.029,CST-1368DR,5705,7983,15056,0.146,551
2020-12-13T10:47:09,42.805,6.029,CST-1368DR,5705,7984,15057,0.146,551
2020-12-13T10:50:11,42.805,6.029,CST-1368DR,5705,7984,15057,0.146,551
2020-12-13T10:53:12,42.805,6.029,CST-1368DR,5705,7984,15057,0.146,551
2020-12-13T10:56:14,42.805,6.029,CST-1368DR,5705,7983,15056,0.146,551
2020-12-13T10:59:15,42.805,6.029,CST-1368DR,5705,7984,15056,0.146,551
2020-12-13T11:02:17,42.805,6.029,CST-1368DR,5705,7984,15056,0.146,551
2020-12-13T11:05:18,42.805,6.029,CST-1368DR,5705,7984,15057,0.146,551
2020-12-13T11:08:20,42.805,6.029,CST-1368DR,5705,7983,15056,0.146,551
2020-12-13T11:11:22,42.805,6.029,CST-1368DR,5705,7984,15057,0.146,551
2020-12-13T11:14:23,42.805,6.029,CST-1368DR,5705,7981,15052,0.147,551
2020-12-13T11:17:25,42.805,6.029,CST-1368DR,5705,7983,15056,0.146,550
2020-12-13T11:20:26,42.805,6.029,CST-1368DR,5705,7984,15056,0.146,551
2020-12-13T11:23:28,42.805,6.029,CST-1368DR,5705,7984,15057,0.146,551
2020-12-13T11:26:30,42.805,6.029,CST-1368DR,5705,7983,15056,0.146,551
2020-12-13T11:29:31,42.805,6.029,CST-1368DR,5705,7984,15056,0.146,551
2020-12-13T11:32:33,42.805,6.029,CST-1368DR,5705,7983,15055,0.146,551
2020-12-13T11:35:34,42.805,6.029,CST-1368DR,5705,7984,15056,0.146,551
2020-12-13T11:38:36,42.805,6.029,CST-1368DR,5705,7984,15056,0.146,551
2020-12-13T11:41:37,42.805,6.029,CST-1368DR,5705,7984,15056,0.146,551
2020-12-13T11:44:39,42.805,6.029,CST-1368DR,5705,7983,15055,0.146,551
2020-12-13T11:47:41,42.805,6.029,CST-1368DR,5705,7984,15056,0.146,551
2020-12-13T11:50:42,42.805,6.029,CST-1368DR,5705,7984,15056,0.146,551
2020-12-13T11:53:44,42.805,6.029,CST-1368DR,5705,7983,15055,0.146,550
2020-12-13T11:56:45,42.805,6.029,CST-1368DR,5705,7983,15055,0.146,551
2020-12-13T11:59:47,42.805,6.029,CST-1368DR,5705,7984,15057,0.146,551
2020-12-13T12:02:48,42.805,6.029,CST-1368DR,5705,7984,15057,0.146,551
2020-12-13T12:05:50,42.805,6.029,CST-1368DR,5705,7984,15057,0.146,551
2020-12-13T12:08:52,42.805,6.029,CST-1368DR,5705,7984,15056,0.146,551
2020-12-13T12:11:53,42.805,6.029,CST-1368DR,5705,7984,15056,0.146,551
2020-12-13T12:14:55,42.805,6.029,CST-1368DR,5705,7983,15055,0.146,551
2020-12-13T12:17:56,42.805,6.029,CST-1368DR,5705,7984,15056,0.146,551
2020-12-13T12:20:58,42.805,6.029,CST-1368DR,5705,7984,15056,0.146,551
2020-12-13T12:24:00,42.805,6.029,CST-1368DR,5705,7983,15056,0.146,551
2020-12-13T12:27:01,42.805,6.029,CST-1368DR,5705,7983,15055,0.146,551
2020-12-13T12:30:03,42.805,6.029,CST-1368DR,5705,7983,15055,0.146,551
2020-12-13T12:33:04,42.805,6.029,CST-1368DR,5705,7983,15055,0.146,551
2020-12-13T12:36:06,42.805,6.029,CST-1368DR,5705,7983,15056,0.146,551
2020-12-13T12:39:07,42.805,6.029,CST-1368DR,5705,7983,15055,0.146,551
2020-12-13T12:42:09,42.805,6.029,CST-1368DR,5705,7984,15056,0.146,551
2020-12-13T12:45:11,42.805,6.029,CST-1368DR,5705,7984,15056,0.146,551
2020-12-13T12:48:12,42.805,6.029,CST-1368DR,5705,7983,15056,0.146,551
2020-12-13T12:51:14,42.805,6.029,CST-1368DR,5705,7983,15055,0.146,551
2020-12-13T12:54:15,42.805,6.029,CST-1368DR,5705,7983,15055,0.146,551
2020-12-13T12:57:17,42.805,6.029,CST-1368DR,5705,7984,15057,0.146,551
2020-12-13T13:00:19,42.805,6.029,CST-1368DR,5705,7983,15055,0.146,551
2020-12-13T13:03:20,42.805,6.029,CST-1368DR,5705,7984,15056,0.146,551
2020-12-13T13:06:22,42.805,6.029,CST-1368DR,5705,7983,15055,0.146,551
2020-12-13T13:09:23,42.805,6.029,CST-1368DR,5705,7982,15054,0.147,551
2020-12-13T13:12:25,42.805,6.029,CST-1368DR,5705,7984,15056,0.146,551
2020-12-13T13:15:26,42.805,6.029,CST-1368DR,5705,7984,15056,0.146,551
2020-12-13T13:18:28,42.805,6.029,CST-1368DR,5705,7983,15056,0.146,551
2020-12-13T13:21:30,42.805,6.029,CST-1368DR,5705,7983,15056,0.146,551
2020-12-13T13:24:31,42.805,6.029,CST-1368DR,5705,7983,15056,0.146,551
2020-12-13T13:27:33,42.805,6.029,CST-1368DR,5705,7984,15056,0.146,550
2020-12-13T13:30:34,42.805,6.029,CST-1368DR,5705,7983,15055,0.146,551
2020-12-13T13:33:36,42.805,6.029,CST-1368DR,5705,7983,15056,0.146,551
2020-12-13T13:36:37,42.805,6.029,CST-1368DR,5705,7984,15056,0.146,551
2020-12-13T13:39:39,42.805,6.029,CST-1368DR,5705,7983,15055,0.146,551
2020-12-13T13:42:41,42.805,6.029,CST-1368DR,5705,7983,15055,0.146,551
2020-12-13T13:45:42,42.805,6.029,CST-1368DR,5705,7983,15055,0.146,551
2020-12-13T13:48:44,42.805,6.029,CST-1368DR,5705,7982,15053,0.147,551
2020-12-13T13:51:45,42.805,6.029,CST-1368DR,5705,7982,15054,0.147,551
2020-12-13T13:54:47,42.805,6.029,CST-1368DR,5705,7982,15054,0.147,551
2020-12-13T13:57:49,42.805,6.029,CST-1368DR,5705,7982,15053,0.147,551
2020-12-13T14:00:50,42.805,6.029,CST-1368DR,5705,7983,15055,0.146,551
2020-12-13T14:03:52,42.805,6.029,CST-1368DR,5705,7982,15053,0.147,551
2020-12-13T14:06:53,42.805,6.029,CST-1368DR,5705,7983,15055,0.146,551
2020-12-13T14:09:55,42.805,6.029,CST-1368DR,5705,7982,15054,0.147,550
2020-12-13T14:12:56,42.805,6.029,CST-1368DR,5705,7983,15055,0.146,551
2020-12-13T14:15:58,42.805,6.029,CST-1368DR,5705,7983,15055,0.146,551
2020-12-13T14:19:00,42.805,6.029,CST-1368DR,5705,7983,15055,0.146,551
2020-12-13T14:22:01,42.805,6.029,CST-1368DR,5705,7982,15053,0.147,551
2020-12-13T14:25:03,42.805,6.029,CST-1368DR,5705,7983,15055,0.146,551
2020-12-13T14:28:04,42.805,6.029,CST-1368DR,5705,7983,15055,0.146,551
2020-12-13T14:31:06,42.805,6.029,CST-1368DR,5705,7982,15054,0.147,551
2020-12-13T14:34:07,42.805,6.029,CST-1368DR,5705,7982,15054,0.147,551
2020-12-13T14:37:09,42.805,6.029,CST-1368DR,5705,7982,15054,0.147,550
2020-12-13T14:40:11,42.805,6.029,CST-1368DR,5704,7982,15055,0.146,551
2020-12-13T14:43:12,42.805,6.029,CST-1368DR,5704,7983,15057,0.146,551
2020-12-13T14:46:14,42.805,6.029,CST-1368DR,5705,7982,15054,0.147,551
2020-12-13T14:49:15,42.805,6.029,CST-1368DR,5705,7982,15053,0.147,551
2020-12-13T14:52:17,42.805,6.029,CST-1368DR,5704,7982,15055,0.146,551
2020-12-13T14:55:19,42.805,6.029,CST-1368DR,5704,7983,15057,0.146,551
2020-12-13T14:58:20,42.805,6.029,CST-1368DR,5705,7981,15051,0.147,550
2020-12-13T15:01:22,42.805,6.029,CST-1368DR,5705,7982,15053,0.147,551
2020-12-13T15:04:23,42.805,6.029,CST-1368DR,5704,7982,15056,0.146,551
2020-12-13T15:07:25,42.805,6.029,CST-1368DR,5704,7981,15054,0.147,551
2020-12-13T15:10:26,42.805,6.029,CST-1368DR,5705,7982,15053,0.147,551
2020-12-13T15:13:28,42.805,6.029,CST-1368DR,5704,7982,15055,0.146,551
2020-12-13T15:16:30,42.805,6.029,CST-1368DR,5704,7982,15055,0.146,551
2020-12-13T15:19:31,42.805,6.029,CST-1368DR,5704,7982,15057,0.146,551
2020-12-13T15:22:33,42.805,6.029,CST-1368DR,5705,7981,15051,0.147,551
2020-12-13T15:25:34,42.805,6.029,CST-1368DR,5704,7982,15056,0.146,551
2020-12-13T15:28:36,42.805,6.029,CST-1368DR,5704,7982,15056,0.146,551
2020-12-13T15:31:38,42.805,6.029,CST-1368DR,5704,7981,15054,0.147,551
2020-12-13T15:34:39,42.805,6.029,CST-1368DR,5704,7982,15056,0.146,551
2020-12-13T15:37:41,42.805,6.029,CST-1368DR,5704,7982,15056,0.146,551
2020-12-13T15:40:42,42.805,6.029,CST-1368DR,5704,7982,15056,0.146,551
2020-12-13T15:43:44,42.805,6.029,CST-1368DR,5704,7982,15055,0.146,551
2020-12-13T15:46:45,42.805,6.029,CST-1368DR,5704,7974,15041,0.150,551
2020-12-13T15:49:47,42.805,6.029,CST-1368DR,5704,7982,15056,0.146,551
2020-12-13T15:52:49,42.805,6.029,CST-1368DR,5704,7982,15056,0.146,551
2020-12-13T15:55:50,42.805,6.029,CST-1368DR,5704,7982,15055,0.146,551
2020-12-13T15:58:52,42.805,6.029,CST-1368DR,5705,7982,15054,0.147,551
2020-12-13T16:01:53,42.805,6.029,CST-1368DR,5705,7981,15052,0.147,551
2020-12-13T16:04:55,42.805,6.029,CST-1368DR,5704,7982,15055,0.146,551
2020-12-13T16:07:56,42.805,6.029,CST-1368DR,5705,7982,15053,0.147,551
2020-12-13T16:10:58,42.805,6.029,CST-1368DR,5704,7980,15052,0.147,551
2020-12-13T16:14:00,42.805,6.029,CST-1368DR,5704,7982,15057,0.146,551
2020-12-13T16:17:01,42.805,6.029,CST-1368DR,5705,7982,15053,0.147,551
2020-12-13T16:20:03,42.805,6.029,CST-1368DR,5704,7982,15055,0.146,551
2020-12-13T16:23:04,42.805,6.029,CST-1368DR,5704,7982,15056,0.146,551
2020-12-13T16:26:06,42.805,6.029,CST-1368DR,5704,7982,15056,0.146,551
2020-12-13T16:29:08,42.805,6.029,CST-1368DR,5704,7982,15056,0.146,551
2020-12-13T16:32:09,42.805,6.029,CST-1368DR,5704,7981,15054,0.147,551
2020-12-13T16:35:11,42.805,6.029,CST-1368DR,5704,7981,15054,0.147,551
2020-12-13T16:38:12,42.805,6.029,CST-1368DR,5704,7980,15053,0.147,551
2020-12-13T16:41:14,42.805,6.029,CST-1368DR,5704,7981,15054,0.147,551
2020-12-13T16:44:15,42.805,6.029,CST-1368DR,5704,7980,15053,0.147,551
2020-12-13T16:47:17,42.805,6.029,CST-1368DR,5704,7980,15052,0.147,551
2020-12-13T16:50:19,42.805,6.029,CST-1368DR,5704,7980,15053,0.147,551
2020-12-13T16:53:20,42.805,6.029,CST-1368DR,5704,7982,15056,0.146,551